Regional Weather Roundup
Issued by NWS

Home | Current Version | Previous Version | Graphics & Text | Print | Product List | Glossary On
Versions: 1 2 3 4 5 6 7 8 9 10 11 12 13 14 15 16 17 18 19 20 21 22 23 24 25 26 27 28 29 30 31 32 33 34 35 36 37 38 39 40 41 42 43 44 45 46 47 48 49 50
000
ASUS43 KLSX 240607
RWRMO

WEATHER SUMMARY FOR MISSOURI
NATIONAL WEATHER SERVICE SPRINGFIELD MO
1200 AM CST MON NOV 24 2014

NOTE: "FAIR" INDICATES FEW OR NO CLOUDS BELOW 12,000 FEET WITH NO
       SIGNIFICANT WEATHER AND/OR OBSTRUCTIONS TO VISIBILITY.
       CURRENT SKY AND/OR WEATHER CONDITIONS ARE NOT AVAILABLE FOR
       CHILLICOTHE AND FARMINGTON.

MOZ001>031-035>038-043-044-053-054-240700-
...NORTHERN AND WESTERN MISSOURI...

CITY           SKY/WX    TMP DP  RH WIND       PRES   REMARKS
KANSAS CTY INT CLOUDY    41  35  79 NW17G35   29.47R
6HR MIN TEMP:  40; 6HR MAX TEMP:  43; 6HR PCP:  0.10;

KANSAS C DTWN  CLOUDY    42  34  73 NW10G22   29.48R
6HR MIN TEMP:  41; 6HR MAX TEMP:  46; 6HR PCP:  0.05;

ST JOSEPH      CLOUDY    40  30  67 NW31G39   29.48S WCI  28
6HR MIN TEMP:  40; 6HR MAX TEMP:  44; 6HR PCP:  0.13;

CHILLICOTHE      N/A     40  36  86 NW6       29.43R
6HR MIN TEMP:  39; 6HR MAX TEMP:  48; 6HR PCP:  0.55;

KIRKSVILLE     LGT SNOW  35  33  92 NW23G35   29.35R FOG     WCI  23
6HR MIN TEMP:  35; 6HR MAX TEMP:  53; 6HR PCP:  0.13;


$$
MOZ066>068-077>081-088>096-101>105-240700-
...SOUTHWEST MISSOURI...

CITY           SKY/WX    TMP DP  RH WIND       PRES   REMARKS
SPRINGFIELD    LGT RAIN  41  38  89 NW15G26   29.47R
6HR MIN TEMP:  41; 6HR MAX TEMP:  56; 6HR PCP:  0.51;

JOPLIN         LGT RAIN  42  36  79 NW15G25   29.58R
6HR MIN TEMP:  41; 6HR MAX TEMP:  56; 6HR PCP:  0.37;


$$
MOZ032>034-039>042-045>050-055>058-069>072-240700-
...CENTRAL MISSOURI...

CITY           SKY/WX    TMP DP  RH WIND       PRES   REMARKS
COLUMBIA       HVY RAIN  42  41  96 NW22G38   29.32R FOG
6HR MIN TEMP:  42; 6HR MAX TEMP:  54; 6HR PCP:  0.20;

JEFFERSON CITY RAIN      44  42  93 NW17G23   29.32R FOG
6HR MIN TEMP:  44; 6HR MAX TEMP:  55; 6HR PCP:  0.44;

ROLLA          LGT RAIN  45  43  93 NW20G32   29.27R
6HR MIN TEMP:  45; 6HR MAX TEMP:  54; 6HR PCP:  0.52;

SEDALIA        LGT RAIN  40  37  89 NW16G25   29.42R
6HR MIN TEMP:  40; 6HR MAX TEMP:  55; 6HR PCP:  0.68;

WHITEMAN AFB   LGT RAIN  39  35  87 N17G25    29.44R WCI  30
WARRENSBURG    CLOUDY    37  36  93 NW7       29.46R
OSAGE BEACH    CLOUDY    43  39  87 W9G20     29.37R

$$
MOZ051-052-059>065-240700-
...EAST CENTRAL MISSOURI...

CITY           SKY/WX    TMP DP  RH WIND       PRES   REMARKS
ST LOUIS INTL  RAIN      57  54  88 SW3       29.20F FOG
6HR MIN TEMP:  55; 6HR MAX TEMP:  57; 6HR PCP:  0.04;

SPIRIT OF STL  LGT RAIN  54  53  97 CALM      29.20F
6HR MIN TEMP:  52; 6HR MAX TEMP:  55; 6HR PCP:  0.02;

ST CHARLES     CLOUDY    50  50 100 CALM      29.20F FOG
6HR MIN TEMP:  50; 6HR MAX TEMP:  53; 6HR PCP:  0.06;


$$
MOZ072>076-082>087-097>100-106>115-240700-
...SOUTH CENTRAL AND SOUTHEAST MISSOURI...

CITY           SKY/WX    TMP DP  RH WIND       PRES   REMARKS
CAPE GIRARDEAU LGT RAIN  59  58  96 S18G24    29.29F
6HR MIN TEMP:  54; 6HR MAX TEMP:  59; 6HR PCP:  0.04;

FARMINGTON     CLOUDY    54  52  94 S9G17     29.25F
6HR MIN TEMP:  54; 6HR MAX TEMP:  55; 6HR PCP:  0.17;

POPLAR BLUFF   MOCLDY    61  57  87 SW15G24   29.28F
6HR MIN TEMP:  55; 6HR MAX TEMP:  60; 6HR PCP:  0.02;

WEST PLAINS    CLOUDY    54  51  90 W15       29.31R
6HR MIN TEMP:  54; 6HR MAX TEMP:  57; 6HR PCP:  0.22;


$$


USA.gov is the U.S. government's official web portal to all federal, state and local government web resources and services.